Find Starlink 11442

NORAD ID: 62885 Int'l Des: 2025-024 Owner: SPXS Country: US Constellation: starlink operational
LEOCIRCULAR

当前视图

正在加载3D地球...

关于 Starlink 11442

正在加载描述...

即将过境

Passes for default location (London). Set your location on the main map for personalized predictions.

高度历史

Loading altitude history...

两行轨道根数

1 62885U 25024G 26145.51607690 .00213134 00000-0 16191-2 0 9998
2 62885 43.0023 77.9897 0001132 42.5149 317.5807 15.70886762 75555
Epoch: May 25, 2026 • Age: 22 hours

当前状态

高度 356.0 km
速度 7.70 km/s
星下点 31.60°N, 173.03°E
发射日期 Feb 4, 2025
运行时间 1.3 years
类型 internet

技术详情

分类 Payload
质量 960.00 kg
干质量 910.00 kg
总质量 960.00 kg
长度 0.30 m
直径 4.10 m
跨度 29.00 m
形状 Box + pan
制造商 SPXS
平台类型 Starlink V2MD
阶段状态 In Orbit
所有者/国家 SPXS/US

Most Searched